Location: Lombard
(41.8800°N, 88.0080°W)
Time: 12:47:01
(UTC-06:00)

Transit 4A - Pass Details

Date: 29 November 2023
Orbit: 870 x 973 km, 66.8° (Epoch: 02 March)

Event Time Altitude Azimuth Distance (km) Brightness Sun altitude
Rises 19:47:06 0° 172° (S) 3,648 - -37.5°
Reaches altitude 10° 19:50:04 10° 160° (SSE) 2,709 - -38.1°
Maximum altitude 19:55:09 26° 107° (ESE) 1,811 - -39.0°
Drops below altitude 10° 20:00:14 10° 53° (NE) 2,711 - -39.9°
Sets 20:03:11 0° 42° (NE) 3,652 - -40.5°
